Erwin, NC

2:06 PM EDT on June 22, 2017 (GMT -0400)
Harnett County

Weather History for KHRJ - April, 2013

Change the Weather History Date:

Wednesday, April 3, 2013

  Actual Average Record
Temperature  
Mean Temperature 54 °F -  
Max Temperature 62 °F 73 °F 88 °F (1963)
Min Temperature 45 °F 46 °F 29 °F (1992)
Degree Days  
Heating Degree Days 12    
Growing Degree Days 4 (Base 50)    
Moisture  
Dew Point 22 °F    
Average Humidity 32    
Maximum Humidity 74    
Minimum Humidity 18    
Precipitation  
Precipitation 0.00 in - - ()
Sea Level Pressure  
Sea Level Pressure 30.22 in    
Wind  
Wind Speed 5 mph (NNE)    
Max Wind Speed 10 mph    
Max Gust Speed 20 mph    
Visibility 10 miles    
Events      
Averages and records for this station are not official NWS values.
T = Trace of Precipitation, MM = Missing Value Source: NWS Daily Summary

Daily Weather History Graph

Daily Weather History Graph

Search for Another Location

Airport or City:

Trip Planner

Search our weather history database for the weather conditions in past years. The results will help you decide how hot, cold, wet, or windy it might be!

Date:

Astronomy

Apr. 03, 2013 Rise Set
Actual Time 6:58 AM EDT 7:38 PM EDT
Civil Twilight 6:32 AM EDT 8:03 PM EDT
Nautical Twilight 6:02 AM EDT 8:34 PM EDT
Astronomical Twilight 5:31 AM EDT 9:05 PM EDT
Moon 2:24 AM EDT (4/3) 1:01 PM EDT (4/3)
Length of Visible Light 13h 31m
Length of Day
12h 39m
Last Quarter, 45% of the Moon is Illuminated
Apr 3
Last Quarter
Apr 10
New
Apr 18
First Quarter
Apr 25
Full
May 2
Last Quarter

Hourly Weather History & Observations

Time (EDT) Temp. Windchill Dew Point Humidity Pressure Visibility Wind Dir Wind Speed Gust Speed Precip Events Conditions
12:15 AM 46.6 °F - 38.3 °F 73% 30.12 in 10.0 mi Calm Calm - N/A   Overcast
12:35 AM 47.3 °F - 38.5 °F 71% 30.13 in 10.0 mi Calm Calm - N/A   Overcast
12:55 AM 47.3 °F - 39.4 °F 74% 30.14 in 10.0 mi North 3.5 mph - N/A   Overcast
1:15 AM 49.8 °F - 32.2 °F 51% 30.15 in 10.0 mi North 4.6 mph - N/A   Overcast
1:35 AM 50.2 °F - 30.9 °F 48% 30.16 in 10.0 mi North 5.8 mph - N/A   Mostly Cloudy
1:55 AM 50.9 °F - 27.3 °F 40% 30.16 in 10.0 mi North 5.8 mph - N/A   Overcast
2:15 AM 50.2 °F - 30.0 °F 46% 30.17 in 10.0 mi North 5.8 mph - N/A   Overcast
2:35 AM 50.4 °F - 27.7 °F 42% 30.17 in 10.0 mi North 5.8 mph - N/A   Overcast
2:55 AM 50.2 °F - 27.9 °F 42% 30.18 in 10.0 mi North 5.8 mph - N/A   Overcast
3:15 AM 50.0 °F - 26.6 °F 40% 30.18 in 10.0 mi North 9.2 mph - N/A   Overcast
3:35 AM 49.8 °F - 22.6 °F 34% 30.18 in 10.0 mi North 6.9 mph - N/A   Overcast
3:55 AM 49.3 °F - 19.6 °F 31% 30.17 in 10.0 mi North 9.2 mph - N/A   Overcast
4:15 AM 48.9 °F - 19.2 °F 31% 30.17 in 10.0 mi North 5.8 mph - N/A   Overcast
4:35 AM 48.6 °F - 18.1 °F 30% 30.16 in 10.0 mi NNE 6.9 mph - N/A   Overcast
4:55 AM 48.2 °F - 18.9 °F 31% 30.17 in 10.0 mi NNE 8.1 mph - N/A   Overcast
5:15 AM 47.7 °F - 16.7 °F 29% 30.18 in 10.0 mi NNE 8.1 mph 16.1 mph N/A   Overcast
5:35 AM 47.3 °F - 16.7 °F 30% 30.19 in 10.0 mi NNE 9.2 mph - N/A   Overcast
5:55 AM 46.8 °F - 17.8 °F 32% 30.19 in 10.0 mi North 6.9 mph - N/A   Overcast
6:15 AM 46.4 °F 43.5 °F 18.3 °F 33% 30.19 in 10.0 mi North 5.8 mph - N/A   Overcast
6:35 AM 46.0 °F 43.9 °F 19.2 °F 34% 30.20 in 10.0 mi NNE 4.6 mph - N/A   Overcast
6:55 AM 45.9 °F 43.6 °F 19.8 °F 35% 30.21 in 10.0 mi NNE 4.6 mph - N/A   Overcast
7:15 AM 45.5 °F 40.3 °F 20.7 °F 37% 30.22 in 10.0 mi NNE 10.4 mph - N/A   Overcast
7:55 AM 45.5 °F 40.8 °F 21.7 °F 39% 30.24 in 10.0 mi NE 9.2 mph - N/A   Overcast
8:15 AM 46.2 °F 42.7 °F 21.4 °F 37% 30.26 in 10.0 mi NNE 6.9 mph - N/A   Overcast
8:35 AM 46.8 °F - 20.7 °F 36% 30.27 in 10.0 mi NE 10.4 mph - N/A   Overcast
8:55 AM 47.1 °F - 19.4 °F 33% 30.27 in 10.0 mi NNE 9.2 mph - N/A   Overcast
9:15 AM 48.0 °F - 19.4 °F 32% 30.28 in 10.0 mi NE 8.1 mph - N/A   Overcast
9:35 AM 49.3 °F - 19.9 °F 31% 30.28 in 10.0 mi NE 9.2 mph - N/A   Overcast
9:55 AM 50.4 °F - 17.8 °F 28% 30.28 in 10.0 mi NE 9.2 mph - N/A   Scattered Clouds
10:15 AM 50.2 °F - 17.4 °F 27% 30.29 in 10.0 mi NE 9.2 mph - N/A   Mostly Cloudy
10:35 AM 52.0 °F - 17.8 °F 26% 30.27 in 10.0 mi North 8.1 mph 16.1 mph N/A   Overcast
10:55 AM 53.6 °F - 17.1 °F 24% 30.28 in 10.0 mi NNE 8.1 mph 16.1 mph N/A   Mostly Cloudy
11:15 AM 55.0 °F - 16.7 °F 22% 30.27 in 10.0 mi NE 8.1 mph 19.6 mph N/A   Scattered Clouds
11:35 AM 53.6 °F - 16.2 °F 23% 30.28 in 10.0 mi NNW 8.1 mph - N/A   Clear
11:55 AM 55.8 °F - 16.5 °F 21% 30.27 in 10.0 mi NE 10.4 mph - N/A   Clear
12:15 PM 56.7 °F - 16.0 °F 20% 30.26 in 10.0 mi NE 5.8 mph - N/A   Clear
12:35 PM 55.9 °F - 16.7 °F 21% 30.26 in 10.0 mi NNE 5.8 mph - N/A   Clear
12:55 PM 56.3 °F - 17.4 °F 22% 30.27 in 10.0 mi Calm Calm - N/A   Clear
1:15 PM 59.0 °F - 16.5 °F 19% 30.25 in 10.0 mi East 6.9 mph - N/A   Clear
1:35 PM 59.4 °F - 17.6 °F 20% 30.24 in 10.0 mi Calm Calm - N/A   Clear
1:55 PM 59.5 °F - 18.1 °F 20% 30.23 in 10.0 mi Calm Calm - N/A   Clear
2:15 PM 59.4 °F - 18.3 °F 20% 30.23 in 10.0 mi North 4.6 mph - N/A   Clear
2:35 PM 59.9 °F - 20.3 °F 22% 30.22 in 10.0 mi Calm Calm - N/A   Clear
2:55 PM 62.2 °F - 21.0 °F 21% 30.21 in 10.0 mi NE 9.2 mph - N/A   Clear
3:15 PM 60.6 °F - 19.2 °F 20% 30.21 in 10.0 mi Calm Calm - N/A   Clear
3:35 PM 62.2 °F - 20.7 °F 20% 30.20 in 10.0 mi ENE 5.8 mph - N/A   Clear
3:55 PM 60.8 °F - 18.7 °F 20% 30.21 in 10.0 mi ESE 3.5 mph - N/A   Clear
4:15 PM 62.4 °F - 19.9 °F 20% 30.20 in 10.0 mi Calm Calm - N/A   Clear
4:35 PM 61.9 °F - 19.2 °F 19% 30.20 in 10.0 mi WNW 4.6 mph - N/A   Clear
4:55 PM 62.1 °F - 17.1 °F 18% 30.20 in 10.0 mi Calm Calm - N/A   Clear
5:15 PM 62.1 °F - 20.1 °F 20% 30.20 in 10.0 mi Calm Calm - N/A   Clear
5:35 PM 62.1 °F - 19.6 °F 19% 30.21 in 10.0 mi Calm Calm - N/A   Clear
5:55 PM 61.3 °F - 20.1 °F 20% 30.22 in 10.0 mi Calm Calm - N/A   Clear
6:15 PM 60.8 °F - 22.6 °F 23% 30.22 in 10.0 mi NNW 4.6 mph - N/A   Clear
6:35 PM 59.9 °F - 22.6 °F 24% 30.22 in 10.0 mi Calm Calm - N/A   Clear
6:55 PM 59.0 °F - 25.0 °F 27% 30.22 in 10.0 mi Calm Calm - N/A   Clear
7:15 PM 57.9 °F - 26.8 °F 30% 30.22 in 10.0 mi NNW 3.5 mph - N/A   Clear
7:35 PM 56.7 °F - 27.9 °F 33% 30.22 in 10.0 mi Calm Calm - N/A   Clear
7:55 PM 55.2 °F - 27.7 °F 35% 30.23 in 10.0 mi NNW 3.5 mph - N/A   Clear
8:15 PM 55.0 °F - 26.4 °F 33% 30.24 in 10.0 mi North 3.5 mph - N/A   Clear
8:35 PM 54.5 °F - 30.2 °F 39% 30.25 in 10.0 mi North 3.5 mph - N/A   Clear
8:55 PM 54.5 °F - 26.2 °F 34% 30.25 in 10.0 mi North 3.5 mph - N/A   Clear
9:15 PM 54.7 °F - 23.9 °F 30% 30.26 in 10.0 mi Calm Calm - N/A   Clear
9:35 PM 54.0 °F - 23.5 °F 31% 30.27 in 10.0 mi North 3.5 mph - N/A   Clear
9:55 PM 53.8 °F - 24.1 °F 32% 30.28 in 10.0 mi Calm Calm - N/A   Clear
10:15 PM 52.9 °F - 24.4 °F 33% 30.29 in 10.0 mi NNE 3.5 mph - N/A   Clear
10:35 PM 52.7 °F - 23.4 °F 32% 30.28 in 10.0 mi NE 4.6 mph - N/A   Clear
10:55 PM 52.0 °F - 24.8 °F 35% 30.29 in 10.0 mi Calm Calm - N/A   Clear
11:15 PM 51.1 °F - 29.7 °F 44% 30.29 in 10.0 mi NNE 4.6 mph - N/A   Clear
11:35 PM 52.0 °F - 22.5 °F 32% 30.28 in 10.0 mi NE 4.6 mph - N/A   Clear
11:55 PM 51.1 °F - 25.5 °F 37% 30.29 in 10.0 mi NE 4.6 mph - N/A   Clear